Location: Izdebno
(52.6670°N, 16.2170°E)
Time: 11:02:04
(UTC+02:00)

A-11 Canister half - Pass Details

Date: 02 March 2024
Orbit: 1513 x 1686 km, 47.2° (Epoch: 24 April)

Event Time Altitude Azimuth Distance (km) Brightness Sun altitude
Exits shadow 03:26:50 53° 233° (SW) 1,977 9.1 -29.0°
Maximum altitude 03:29:07 65° 184° (S) 1,796 9.1 -28.7°
Drops below altitude 10° 03:38:50 10° 105° (ESE) 3,850 11.7 -27.4°
Sets 03:41:55 0° 103° (ESE) 4,813 12.3 -27.0°
